Terug naar catalogus

STARLINK-11693

ActiefCommunicatieVLEO
NORAD 63763·PAYLOAD·🇺🇸 United States

Gelanceerd Apr 29, 2025 vanaf Cape Canaveral Space Force Station

Loading…

Volgende Passages (komende 24 uur)

TLE

VersSource: CelesTrak SupGP

Epoch: Sep 15, 2026, 03:26 UTC

1 63763C 25089N   26258.14354167 -.00083570  00000+0 -64909-3 0  2586
2 63763  43.0004 230.1530 0001559 264.7027  74.3021 15.70879808    11

Volg STARLINK-11693 in realtime met AllMySat

Download on the App Store